Weather History for Montrose, CO

Change the Weather History Date:

Saturday, December 24, 2011

  Actual Average Record
Temperature  
Mean Temperature 14 °F 25 °F  
Max Temperature 27 °F 36 °F 48 °F (2005)
Min Temperature 0 °F 14 °F -9 °F (1998)
Degree Days  
Heating Degree Days 52 40  
Month to date heating degree days 907  
Since 1 July heating degree days 2328  
Cooling Degree Days 0 0  
Month to date cooling degree days 0  
Year to date cooling degree days 643  
Moisture  
Dew Point 4 °F    
Average Humidity 77    
Maximum Humidity 88    
Minimum Humidity 47    
Precipitation  
Precipitation 0.00 in 0.02 in 0.06 in (1998)
Month to date precipitation 0.51  
Year to date precipitation 11.16  
Sea Level Pressure  
Sea Level Pressure 30.73 in    
Wind  
Wind Speed 5 mph (SE)    
Max Wind Speed 9 mph    
Max Gust Speed -    
Visibility 10 miles    
Events      
T = Trace of Precipitation, MM = Missing Value Source: NWS Daily Summary

Daily Weather History Graph

Daily Weather History Graph

Search for Another Location

Airport:

Trip Planner

Search our weather history database for the weather conditions in past years. The results will help you decide how hot, cold, wet, or windy it might be!

Date:

Astronomy

Dec. 24, 2011 Rise Set
Actual Time 7:26 AM MST 4:55 PM MST
Civil Twilight 6:56 AM MST 5:25 PM MST
Nautical Twilight 6:23 AM MST 5:58 PM MST
Astronomical Twilight 5:51 AM MST 6:31 PM MST
Moon 7:17 AM MST (12/24) 5:11 PM MST (12/24)
Length of Visible Light 10h 28m
Length of Day
9h 28m
New Moon, 0% of the Moon is Illuminated
Dec 24
New Moon
Dec 31
First Quarter
Jan 9
Full
Jan 16
Last Quarter
Jan 23
New

Hourly Weather History & Observations

Time (MST) Temp. Windchill Dew Point Humidity Pressure Visibility Wind Dir Wind Speed Gust Speed Precip Events Conditions
12:53 AM 5.0 °F -6.9 °F 1.0 °F 84% 30.67 in 10.0 mi SSE 6.9 mph - N/A   Clear
1:53 AM 7.0 °F -3.3 °F 1.9 °F 80% 30.66 in 8.0 mi SSE 5.8 mph - N/A   Clear
2:53 AM 1.0 °F -10.3 °F -2.0 °F 87% 30.71 in 10.0 mi ESE 5.8 mph - N/A   Clear
3:53 AM 1.9 °F -9.2 °F -2.0 °F 83% 30.71 in 10.0 mi SSE 5.8 mph - N/A   Clear
4:53 AM 3.0 °F -8.0 °F -0.9 °F 84% 30.72 in 10.0 mi South 5.8 mph - N/A   Clear
5:53 AM 3.0 °F -8.0 °F -0.9 °F 84% 30.74 in 10.0 mi South 5.8 mph - N/A   Clear
6:53 AM -0.0 °F -9.9 °F -4.0 °F 83% 30.80 in 10.0 mi ESE 4.6 mph - N/A   Clear
7:53 AM 1.9 °F -12.9 °F -0.9 °F 88% 30.83 in 10.0 mi SSE 9.2 mph - N/A   Clear
8:53 AM 9.0 °F - 5.0 °F 84% 30.76 in 10.0 mi Calm Calm - N/A   Clear
9:53 AM 14.0 °F 6.5 °F 7.0 °F 74% 30.79 in 10.0 mi WNW 4.6 mph - N/A   Clear
10:53 AM 16.0 °F 8.8 °F 7.0 °F 68% 30.78 in 10.0 mi North 4.6 mph - N/A   Clear
11:53 AM 17.1 °F 10.0 °F 8.1 °F 68% 30.76 in 10.0 mi East 4.6 mph - N/A   Clear
1:53 PM 27.0 °F - 9.0 °F 47% 30.64 in 10.0 mi Calm Calm - N/A   Clear
2:53 PM 26.1 °F 21.9 °F 10.0 °F 51% 30.66 in 10.0 mi NNW 3.5 mph - N/A   Clear
3:53 PM 21.9 °F 15.7 °F 12.0 °F 66% 30.70 in 10.0 mi North 4.6 mph - N/A   Clear
5:53 PM 12.9 °F 5.2 °F 7.0 °F 77% 30.74 in 10.0 mi SE 4.6 mph - N/A   Clear
6:53 PM 10.0 °F - 5.0 °F 80% 30.77 in 9.0 mi Calm Calm - N/A   Clear
7:53 PM 10.9 °F 2.9 °F 7.0 °F 84% 30.76 in 8.0 mi SSE 4.6 mph - N/A   Clear
8:53 PM 8.1 °F -2.0 °F 5.0 °F 87% 30.75 in 7.0 mi SE 5.8 mph - N/A   Clear
9:53 PM 8.1 °F -5.3 °F 3.0 °F 80% 30.74 in 10.0 mi SSE 9.2 mph - N/A   Clear
10:53 PM 8.1 °F -4.3 °F 3.0 °F 80% 30.73 in 10.0 mi SSE 8.1 mph - N/A   Clear
11:53 PM 8.1 °F -3.2 °F 3.9 °F 83% 30.71 in 10.0 mi SSE 6.9 mph - N/A   Clear